User: anonymous   Login
Location: Unspecified
(0.0000°N, 0.0000°E)
Time: 11:51:13
(UTC+00:00)
Language:

Orbcomm F1 (FM01) - Orbit

View from above orbital plane
View from above orbital plane
View from above satellite
View from above satellite

Ground track
Ground track

The orbit data is extracted from the following two-line orbital elements,

1 23545U 95017A   18347.78966332  .00000405  00000-0  77570-4 0  9997
2 23545  69.9699 102.9135 0009174 255.1430 104.8699 14.71222806262269
Epoch (UTC): 13 December 2018 18:57:06
Eccentricity: 0.0009174
inclination: 69.9699°
perigee height: 651 km
apogee height: 663 km
right ascension of ascending node: 102.9135°
argument of perigee: 255.1430°
revolutions per day: 14.71222806
mean anomaly at epoch: 104.8699°
orbit number at epoch: 26226

The dashed part of the orbit path shows where the satellite is in the earth's shadow,  

DLR